レモン彗星

C/2015 XY1 ( Lemmon )

English version
Home page
Updated on July 6, 2017

---------------------------------------------------------------------

・ プロフィール

発見日 2015年12月4日
発見光度 20.4等
発見者 J. A. Johnson (Mount Lemmon)

・ 写真集

・ 軌道要素

Epoch 2018 May 2.0 TT = JDT 2458240.5
T 2018 Apr. 29.91703 TT                                 MPCW
q   7.9279363            (2000.0)            P               Q
z  -0.0005164      Peri.  196.35184     +0.04278401     +0.86104910
 +/-0.0000014      Node   281.61662     +0.96478326     +0.09614977
e   1.0040941      Incl.  148.84768     +0.25954343     -0.49934925
From 230 observations 2015 Dec. 4-2017 Feb. 25, mean residual 0".4.

・ 光度変化

        m1 = 4.5 + 5 logΔ + 10.0 log r

---------------------------------------------------------------------

軌道要素はM.P.E.C. 2017-E59に掲載されたものです。
光度グラフはComet for Windowsで作成したものです。

---------------------------------------------------------------------

Copyright(C) Seiichi Yoshida (comet@aerith.net). All rights reserved.